Regional Weather Roundup
Issued by NWS Sioux Falls, SD

Home | Current Version | Previous Version | Graphics & Text | Print | Product List | Glossary Off
Versions: 1 2 3 4 5 6 7 8 9 10 11 12 13 14 15 16 17 18 19 20 21 22 23 24 25 26 27 28 29 30 31 32 33 34 35 36 37 38 39 40 41 42 43 44 45 46 47 48 49 50

000
ASUS43 KFSD 260302
RWRFSD

WEATHER ROUNDUP FOR SE SOUTH DAKOTA/SW MINNESOTA/NW IOWA
NATIONAL WEATHER SERVICE SIOUX FALLS SD
1000 PM CDT MON JUL 25 2016

NOTE: "FAIR" INDICATES FEW OR NO CLOUDS BELOW 12,000 FEET WITH NO
SIGNIFICANT WEATHER AND OR OBSTRUCTIONS TO VISIBILITY.


SDZ038>040-050-052>070-260400-
SOUTHEAST SOUTH DAKOTA

CITY           SKY/WX    TMP DP  RH WIND       PRES   REMARKS
BROOKINGS      CLEAR     74  64  71 S7        30.05R
CHAMBERLAIN    CLEAR     73  57  57 S8        30.02R
HURON          CLOUDY    80  58  46 S12       29.99R
MADISON        FAIR      68  66  94 S7        30.07R
MITCHELL       CLEAR     80  61  52 S12       30.03R
SIOUX FALLS    PTCLDY    75  63  66 S8        30.06R
WINNER         FAIR      80  53  39 S10       30.03R
YANKTON        CLEAR     75  63  64 SE7       30.05R
$$

MNZ071-072-080-081-089-090-097-098-260400-
SOUTHWEST MINNESOTA

CITY           SKY/WX    TMP DP  RH WIND       PRES   REMARKS
FAIRMONT       CLEAR     73  66  78 CALM      30.06R
JACKSON        CLEAR     73  64  73 S3        30.09R
LUVERNE        CLEAR     68  63  83 S3        30.08R
MARSHALL       CLEAR     74  67  78 S6        30.05R
MONTEVIDEO     CLEAR     73  66  78 SW3       30.04R
REDWOOD FALLS  CLEAR     76  66  71 S6        30.03R
TRACY          CLEAR     74  66  75 S6        30.06R
WINDOM         CLEAR     75  66  73 CALM      30.07R
WORTHINGTON    CLEAR     72  66  81 S5        30.09R
$$

IAZ001>003-012>014-020>022-031-032-NEZ013-014-SDZ071-260400-
NORTHWEST IOWA

CITY           SKY/WX    TMP DP  RH WIND       PRES   REMARKS
CHEROKEE       CLEAR     71  68  88 CALM      30.08R
DENISON        CLEAR     70  68  94 CALM      30.07R
ESTHERVILLE    CLEAR     71  68  90 SE6       30.07R
LE MARS        CLEAR     77  66  69 SE6       30.08R
SHELDON        CLEAR     70  68  94 S3        30.07R
SIOUX CITY     CLEAR     75  66  73 S6        30.06R
SPENCER        CLEAR     72  67  84 S3        30.08R
STORM LAKE     CLEAR     73  66  78 S3        30.10R
$$

ABBREVIATIONS USED IN REMARKS
   TC - TEMPERATURE IN CELSIUS
  WCI - WIND CHILL INDEX
   HX - HEAT INDEX
  VSB - VISIBILITY




USA.gov is the U.S. government's official web portal to all federal, state and local government web resources and services.